Location: Baia Mare
(47.6567°N, 23.5850°E)
Time: 06:54:50
(UTC+03:00)

ISS - Pass Details

Date: 22 March 2020
Orbit: 417 x 423 km, 51.6° (Epoch: 29 March)

Event Time Altitude Azimuth Distance (km) Brightness Sun altitude
Rises 20:48:25 0° 261° (W) 2,355 0.9 -21.3°
Reaches altitude 10° 20:50:32 10° 266° (W) 1,494 -0.2 -21.6°
Enters shadow 20:53:42 53° 335° (NNW) 522 -3.1 -22.1°
